EW5058 Weather Reports


time (UTC)temp
C
wind
direction
speed
KPH
gust
KPH
rain 1hr
cm
rain 24hr
cm
rain mn
cm
humidity
%
barometer
mb
20260507050818 18 338 9.7 14.5 0.00 0.10 0.00 92 1009.6
20260507045840 18 315 3.2 4.8 0.00 0.10 0.00 92 1009.3
20260507044818 18 315 1.6 1.6 0.00 0.10 0.00 92 1009.5
20260507043820 18 0.0 0.0 0.00 0.10 0.00 93 1009.2
20260507042820 18 180 1.6 3.2 0.00 0.10 0.00 93 1009.1
20260507041818 18 0.0 0.0 0.00 0.10 0.00 93 1008.9
20260507040818 17 0.0 1.6 0.00 0.10 0.00 93 1009.0
20260507035819 17 0.0 0.0 0.00 0.10 0.10 94 1009.1
20260507034820 17 0.0 1.6 0.00 0.10 0.10 94 1009.1
20260507033819 17 0.0 1.6 0.00 0.10 0.10 94 1008.9
20260507032819 17 0.0 0.0 0.00 0.10 0.10 94 1008.8
20260507031819 17 0.0 0.0 0.00 0.10 0.10 94 1008.6
20260507030819 17 0.0 0.0 0.00 0.10 0.10 94 1008.5
20260507025819 17 0.0 1.6 0.00 0.10 0.10 94 1008.5
20260507024840 17 0.0 1.6 0.00 0.10 0.10 94 1008.7
20260507023859 17 0.0 1.6 0.00 0.10 0.10 94 1009.0
20260507022819 17 0.0 0.0 0.00 0.10 0.10 94 1009.0
20260507021819 17 0.0 0.0 0.00 0.10 0.10 93 1009.0
20260507020819 17 0.0 0.0 0.00 0.10 0.10 93 1009.0
20260507015819 17 0.0 0.0 0.00 0.10 0.10 92 1009.1
20260507014819 17 0.0 0.0 0.00 0.10 0.10 92 1009.3
20260507013819 17 0.0 0.0 0.00 0.10 0.10 91 1009.2
20260507012819 17 0.0 0.0 0.00 0.10 0.10 90 1009.6
20260507011839 18 0.0 0.0 0.00 0.10 0.10 90 1009.2
20260507010819 18 0.0 0.0 0.00 0.10 0.10 89 1009.1
20260507005819 18 0.0 0.0 0.00 0.10 0.10 88 1009.1
20260507004819 18 0.0 0.0 0.00 0.10 0.10 88 1009.0
20260507003819 18 0.0 1.6 0.00 0.10 0.10 87 1009.0
20260507002819 19 0.0 1.6 0.00 0.10 0.10 86 1008.8
20260507001819 19 0.0 0.0 0.00 0.10 0.10 86 1008.8
20260507000819 19 0.0 0.0 0.00 0.10 0.10 85 1008.8
20260506235839 20 0.0 0.0 0.00 0.10 0.10 85 1008.7
20260506234819 20 0.0 0.0 0.00 0.10 0.10 84 1008.5
20260506233819 20 0.0 1.6 0.00 0.10 0.10 84 1008.4
20260506232819 20 158 1.6 3.2 0.00 0.10 0.10 83 1008.4
20260506231819 20 158 1.6 3.2 0.00 0.10 0.10 83 1008.4
20260506230819 20 180 1.6 3.2 0.00 0.10 0.10 82 1008.3
20260506225819 20 180 4.8 6.4 0.00 0.10 0.10 82 1008.3
20260506224819 20 180 3.2 4.8 0.00 0.10 0.10 82 1008.5
20260506223819 20 203 3.2 4.8 0.00 0.10 0.10 81 1008.5
20260506222819 20 180 4.8 9.7 0.00 0.10 0.10 81 1008.5
20260506221819 20 203 3.2 8.0 0.00 0.10 0.10 81 1008.5
20260506220819 20 180 9.7 19.3 0.00 0.10 0.10 81 1008.5
20260506215818 20 180 1.6 3.2 0.00 0.10 0.10 81 1008.6
20260506214819 20 158 4.8 8.0 0.00 0.10 0.10 81 1008.7
20260506213819 20 180 4.8 16.1 0.00 0.10 0.10 80 1008.4
20260506212819 20 203 8.0 12.9 0.00 0.10 0.10 81 1008.3
20260506211839 20 180 8.0 19.3 0.00 0.10 0.10 81 1008.3
20260506210819 20 203 9.7 14.5 0.00 0.10 0.10 81 1008.2
20260506205819 20 158 4.8 9.7 0.00 0.10 0.10 81 1007.9
20260506204819 20 180 6.4 9.7 0.00 0.10 0.10 81 1008.0
20260506203839 20 158 9.7 22.5 0.00 0.10 0.10 82 1008.1
20260506202819 20 203 6.4 16.1 0.00 0.10 0.10 82 1008.1
20260506201818 20 158 11.3 22.5 0.00 0.10 0.10 82 1008.1
20260506200819 20 180 8.0 14.5 0.00 0.10 0.10 81 1008.3
20260506195819 20 180 12.9 27.4 0.00 0.10 0.10 80 1008.3
20260506194818 20 180 9.7 17.7 0.00 0.10 0.10 80 1008.5
20260506193819 20 158 9.7 12.9 0.00 0.10 0.10 80 1008.6
20260506192818 20 158 9.7 17.7 0.00 0.10 0.10 80 1008.7
20260506191839 20 180 4.8 8.0 0.00 0.10 0.10 81 1008.9
20260506190818 20 203 9.7 16.1 0.00 0.10 0.10 80 1008.9
20260506185819 20 203 6.4 12.9 0.00 0.10 0.10 81 1008.8
20260506184818 20 180 12.9 17.7 0.00 0.10 0.10 80 1009.0
20260506183818 20 180 11.3 24.1 0.00 0.10 0.10 81 1009.2
20260506182840 20 180 9.7 12.9 0.00 0.10 0.10 81 1009.5
20260506181818 20 180 6.4 11.3 0.00 0.10 0.10 83 1009.5
20260506180820 20 158 14.5 27.4 0.00 0.10 0.10 84 1009.5
20260506175818 20 180 6.4 16.1 0.00 0.10 0.10 84 1009.7
20260506174820 19 135 8.0 14.5 0.00 0.10 0.10 85 1009.9
20260506173819 18 180 8.0 14.5 0.00 0.10 0.10 86 1010.0
20260506172818 18 203 6.4 12.9 0.00 0.10 0.10 87 1009.9
20260506171820 18 180 11.3 20.9 0.03 0.10 0.10 88 1009.8
20260506170838 17 180 4.8 12.9 0.03 0.10 0.10 89 1009.9
20260506165838 17 180 11.3 30.6 0.10 0.10 0.10 89 1010.1
20260506164820 18 203 6.4 14.5 0.10 0.10 0.10 89 1010.1
20260506163818 18 180 8.0 19.3 0.10 0.10 0.10 92 1010.2
20260506162838 17 180 6.4 11.3 0.10 0.10 0.10 91 1010.2
20260506161820 17 180 3.2 9.7 0.08 0.08 0.08 91 1010.6
20260506160820 17 135 4.8 11.3 0.08 0.08 0.08 90 1010.6
20260506155818 17 180 6.4 14.5 0.00 0.00 0.00 89 1010.8
20260506154818 17 203 4.8 8.0 0.00 0.00 0.00 88 1011.0
20260506153818 17 180 3.2 6.4 0.00 0.00 0.00 87 1011.1
20260506152820 18 158 1.6 3.2 0.00 0.00 0.00 86 1011.1
20260506151818 18 180 3.2 6.4 0.00 0.00 0.00 84 1011.3
20260506150818 18 180 3.2 8.0 0.00 0.00 0.00 83 1011.2
20260506145819 18 180 1.6 3.2 0.00 0.00 0.00 80 1011.4
20260506144818 18 158 4.8 6.4 0.00 0.00 0.00 81 1011.3
20260506143820 19 180 3.2 4.8 0.00 0.00 0.00 79 1011.4
20260506142820 19 158 3.2 6.4 0.00 0.00 0.00 78 1011.2
20260506141820 19 180 3.2 4.8 0.00 0.00 0.00 76 1011.2
20260506140840 19 180 4.8 9.7 0.00 0.00 0.00 75 1011.4
20260506135820 19 180 11.3 16.1 0.00 0.00 0.00 74 1011.2
20260506134820 19 180 11.3 17.7 0.00 0.00 0.00 74 1011.1
20260506133819 19 180 6.4 11.3 0.00 0.00 0.00 74 1011.0
20260506132819 20 158 6.4 16.1 0.00 0.00 0.00 74 1011.1
20260506131820 20 158 6.4 14.5 0.00 0.00 0.00 74 1011.1
20260506130820 19 180 6.4 8.0 0.00 0.00 0.00 74 1011.1
20260506125820 19 203 4.8 6.4 0.00 0.00 0.00 73 1011.0
20260506124820 19 180 6.4 12.9 0.00 0.00 0.00 74 1011.0
20260506123840 19 203 6.4 14.5 0.00 0.00 0.00 73 1011.2
20260506122820 19 203 11.3 19.3 0.00 0.00 0.00 73 1011.2
20260506121820 19 180 8.0 12.9 0.00 0.00 0.00 74 1011.5
20260506120820 19 180 9.7 16.1 0.00 0.00 0.00 74 1011.5
20260506115840 18 180 6.4 9.7 0.00 0.00 0.00 75 1011.5
20260506114819 18 180 3.2 8.0 0.00 0.00 0.00 75 1011.4
20260506113820 18 180 6.4 12.9 0.00 0.00 0.00 76 1011.3
20260506112819 18 158 4.8 8.0 0.00 0.00 0.00 76 1011.3
20260506111819 18 158 3.2 8.0 0.00 0.00 0.00 77 1011.2
20260506110820 17 180 6.4 9.7 0.00 0.00 0.00 77 1011.1
20260506105819 17 180 8.0 12.9 0.00 0.00 0.00 77 1011.1
20260506104840 17 180 3.2 8.0 0.00 0.00 0.00 77 1011.0
20260506103820 17 180 4.8 9.7 0.00 0.00 0.00 78 1011.0
20260506102819 17 158 6.4 11.3 0.00 0.00 0.00 78 1011.0
20260506101819 17 180 3.2 9.7 0.00 0.00 0.00 78 1010.9
20260506100820 17 158 3.2 8.0 0.00 0.00 0.00 79 1011.2
20260506095819 17 158 9.7 17.7 0.00 0.00 0.00 79 1011.3
20260506094819 17 180 4.8 11.3 0.00 0.00 0.00 79 1011.3
20260506093820 17 158 3.2 8.0 0.00 0.00 0.00 79 1011.1
20260506092819 17 158 6.4 11.3 0.00 0.00 0.00 79 1011.0
20260506091819 17 180 8.0 14.5 0.00 0.00 0.00 79 1011.0
20260506090819 17 180 4.8 14.5 0.00 0.00 0.00 79 1010.9
20260506085839 18 180 9.7 16.1 0.00 0.00 0.00 79 1010.9
20260506084819 18 180 4.8 9.7 0.00 0.00 0.00 79 1011.0
20260506083819 18 158 4.8 9.7 0.00 0.00 0.00 79 1010.9
20260506082819 18 180 3.2 8.0 0.00 0.00 0.00 79 1011.0
20260506081819 18 180 3.2 6.4 0.00 0.00 0.00 79 1011.0
20260506080819 18 158 8.0 20.9 0.00 0.00 0.00 79 1011.0
20260506072819 18 225 3.2 4.8 0.00 0.00 0.00 79 1011.2
20260506071819 18 180 4.8 6.4 0.00 0.00 0.00 78 1011.3
20260506070839 18 203 6.4 14.5 0.00 0.00 0.00 79 1011.3
20260506061819 19 180 6.4 12.9 0.00 0.00 0.00 77 1011.3
20260506060818 19 158 3.2 6.4 0.00 0.00 0.00 77 1011.3